Weather in Vanzevat

Russia / Khanty-Mansi Autonomous Okrug — Yugra     64°14′01″N   66°02′10″E
temp.,
°C
wind,
m/s
gust,
m/s
humid.,
%
clouds,
%
prec.,
mm/h
press.,
hPa
HPBL,
m
6 may, thu
thu623:00+2ene4699100 1.3 996181
02:00+3ne4699100 2.1 992182
05:00+3e51198100 4.4 987393
08:00+3nnw4599100 6.4 983119
11:00+1w71197100 10.7 982327
14:00+1w101596100 0.9 983760
17:000wnw152197100 3.6 9881258
20:000wnw111797100 1.6 9921020
7 may, fri
fri723:000wnw111695100 2.9 994968
02:00−1wnw11177520 0.3 997775
05:00−2wnw10177499 0.3 1000807
08:00−1nw10147699 0.0 10031035
11:00+1nw11147622 0.0 10061116
14:00+2nw11147099 0.0 10091210
17:00+3nw9116879 0.1 10121072
20:00+2nw58785 0.0 1014472
8 may, sat
sat823:00−1nnw34885 0.0 101556
02:00−1nne11877 0.0 101610
05:00−1se22835 0.0 101844
08:00+3se236692 0.0 1018333
11:00+6sse3558100 0.0 1017489
14:00+7s366699 0.0 1017308
17:00+10wnw577175 0.0 1018891
20:00+7nnw34870 0.0 1020108
9 may, sun
sun923:00+4se22875 0.0 102110
02:00+4sw33874 0.0 102328
05:00+4wnw228684 0.0 102410
08:00+8ssw116869 0.0 1025123
11:00+13ssw33494 0.0 1025735
14:00+16wsw3441100 0.0 10241733
17:00+16wnw233999 0.0 10241787
20:00+14e33545 0.0 102454
10 may, mon
mon1023:00+10se33655 0.0 102437
02:00+8sse33696 0.0 102423
05:00+7se33745 0.0 102433
08:00+12sse22545 0.0 1023256
11:00+16ssw33381 0.0 1022691
14:00+19sw34314 0.0 10201435
17:00+20ssw34295 0.0 10182220
20:00+17sse453976 0.0 101787